Content
SEND FEEDBACK

Daily
Averages
Monthly
Summary
United States of America

HAZELWOOD, MISSOURI


Home > North America > United States > Missouri
Elevation: 570 feet     Latitude: 38 45N     Longitude: 090 22W

WEATHER
 
SELECT A DAY
Number of Records: 196,446;   Date Range: 1/1/95 - 8/12/14
 
SHARE

PRINT THIS DATA

[ ← Previous Day ]
WEATHER ALMANAC - JANUARY 21, 2013
[ Next Day → ]
[ °C ]   °F
Weather ElementAverageHighLow
Temperature20.3 °F27 °F (12:54 pm)16 °F (9:54 pm)
Dewpoint2.6 °F10.9 °F (2:54 am)-5.1 °F (2:54 pm)
Humidity48 %68 % (4:03 am)28 % (1:54 pm)
Barometer30.39 in30.44 in (10:54 pm)30.34 in (3:52 am)
Wind Speed12.3 mph23 mph (3:54 am)
Wind Gust32.2 mph (3:52 am)
Weather ElementAverage
Visibility10 mi
Wind DirectionWNW (309.2 °)

Weather ElementTotal
Precipitation---
Heating Degree Days43.5 (Base 65)
Averaged from 25 records on January 21, 2013
WEATHER CONDITIONS BREAKOUT
WIND DIRECTION BREAKOUT
WEATHER BY HOUR - JANUARY 21, 2013
[ °C ]   °F
Local TimeTemperatureDewpointHumidityBarometerVisibilityWind DirectionWind SpeedGust SpeedPrecipitationEventsConditions
1:54 AM21.9 °F10.0 °F60 %30.35 in10.0 miNW (320°)9.2 mphClear
2:54 AM21.9 °F10.9 °F63 %30.35 in10.0 miNW (310°)6.9 mphClear
3:52 AM21.2 °F10.4 °F63 %30.34 in10.0 miNW (320°)21.9 mph32.2 mphMostly Cloudy
3:54 AM21.0 °F10.0 °F63 %30.37 in10.0 miNW (320°)23.0 mph32.2 mphMostly Cloudy
4:03 AM19.4 °F10.4 °F68 %30.34 in10.0 miNW (310°)11.5 mphScattered Clouds
4:54 AM19.0 °F8.1 °F62 %30.37 in10.0 miWNW (290°)8.1 mphClear
5:54 AM19.0 °F10.0 °F68 %30.38 in10.0 miWNW (290°)10.4 mphClear
6:54 AM19.0 °F8.1 °F62 %30.38 in10.0 miWest (280°)10.4 mph17.3 mphMostly Cloudy
7:54 AM19.0 °F6.1 °F57 %30.38 in10.0 miWNW (290°)9.2 mphScattered Clouds
8:54 AM21.0 °F5.0 °F50 %30.39 in10.0 miWNW (290°)16.1 mphPartly Cloudy
9:54 AM21.9 °F5.0 °F48 %30.39 in10.0 miWNW (300°)18.4 mph25.3 mphPartly Cloudy
10:54 AM25.0 °F3.9 °F41 %30.39 in10.0 miWNW (300°)15.0 mph28.8 mphPartly Cloudy
11:54 AM26.1 °F3.9 °F39 %30.37 in10.0 miWNW (300°)13.8 mphPartly Cloudy
12:54 PM27.0 °F1.0 °F33 %30.35 in10.0 miWNW (290°)15.0 mph24.2 mphMostly Cloudy
1:54 PM25.0 °F-4.0 °F28 %30.37 in10.0 miNNW (330°)15.0 mph26.5 mphMostly Cloudy
2:54 PM21.0 °F-5.1 °F32 %30.39 in10.0 miNW (320°)16.1 mph24.2 mphOvercast
3:54 PM19.9 °F-4.0 °F35 %30.40 in10.0 miNW (310°)13.8 mphOvercast
4:54 PM19.4 °F-4.0 °F36 %30.36 in10.0 miNW (310°)10.4 mphOvercast
5:54 PM18.0 °F-2.9 °F40 %30.42 in10.0 miNW (320°)11.5 mphOvercast
6:54 PM18.0 °F-2.9 °F40 %30.42 in10.0 miNNW (330°)8.1 mphOvercast
7:54 PM18.0 °F-2.9 °F40 %30.42 in10.0 miNW (320°)9.2 mphOvercast
8:54 PM17.1 °F-4.0 °F39 %30.42 in10.0 miNW (320°)11.5 mphOvercast
9:54 PM16.0 °F-4.0 °F41 %30.43 in10.0 miWNW (300°)8.1 mphOvercast
10:54 PM16.0 °F-0.9 °F47 %30.44 in10.0 miNNW (330°)9.2 mphOvercast
11:54 PM16.0 °F-2.0 °F45 %30.44 in10.0 miNNW (330°)5.8 mphOvercast
Hourly data recorded from KSUS, located miles away from Hazelwood, Missouri







STORIES FROM OUR PARTNERS